[Iaude] MPEC L35: 2016 FG59 [a=61.88,e=0.28,i=24.7,H=6.85]
    mpec at cfa.harvard.edu 
    mpec at cfa.harvard.edu
       
    Mon Jun  3 15:15:31 EDT 2024
    
    
  
M.P.E.C. 2024-L35                                  Issued 2024 June 3, 19:13 UT
     The Minor Planet Electronic Circulars contain information on unusual
         minor planets, routine data on comets and natural satellites,
         and occasional editorial announcements.  They are published
    on behalf of Division F of the International Astronomical Union by the
          Minor Planet Center, Smithsonian Astrophysical Observatory,
                          Cambridge, MA 02138, U.S.A.
			  
             Prepared using the Tamkin Foundation Computer Network
                              MPC at CFA.HARVARD.EDU
            URL https://www.minorplanetcenter.net/    ISSN 1523-6714
                                   2016 FG59                                    
Additional Observations:
     K16F59G 3C2001 01 23.27176 10 54 00.81 -04 33 43.4                 EL035807
     K16F59G 3C2001 01 23.29637 10 54 00.73 -04 33 43.2                 EL035807
     K16F59G 3C2001 01 23.30867 10 54 00.69 -04 33 43.1          22.0 R EL035807
     K16F59G 3C2001 01 23.32097 10 54 00.64 -04 33 42.7                 EL035807
     K16F59G 3C2001 03 27.05388 10 49 42.96 -04 15 57.0          23.2 V EL035807
     K16F59G 3C2001 03 27.06201 10 49 42.93 -04 15 56.8          23.1 V EL035807
     K16F59G 3C2001 03 27.07014 10 49 42.89 -04 15 56.5          24.1 V EL035807
     K16F59G 3C2001 03 27.07828 10 49 42.88 -04 15 56.6          23.3 V EL035807
     K16F59G 3C2001 03 27.08640 10 49 42.84 -04 15 56.3          23.2 V EL035807
     K16F59G 3C2001 03 27.14902 10 49 42.60 -04 15 55.0          22.7 R EL035807
     K16F59G 3C2001 03 27.16063 10 49 42.52 -04 15 53.9          23.9 R EL035807
     K16F59G 3C2001 03 27.17223 10 49 42.48 -04 15 54.2          23.2 R EL035807
     K16F59G 3C2001 03 27.18384 10 49 42.46 -04 15 54.0          22.9 R EL035807
     K16F59G !C2015 04 13.03287 11 45 59.67 -17 46 35.0                 EL035W84
     K16F59G !C2015 04 13.13580 11 45 59.24 -17 46 31.9          23.7 V EL035W84
     K16F59G !C2015 04 13.25787 11 45 58.75 -17 46 28.2                 EL035W84
Observer details:
807 Cerro Tololo Observatory, La Serena.  Observers D. Team, A. Becker.
    Measurers A. Becker, D. Wittman.  4-m reflector + CCD.
W84 Cerro Tololo-DECam.  Observers S. Sheppard, C. Trujillo.  Measurer F.
    Valdes.  4.0-m CTIO reflector.
Orbital elements:
2016 FG59                                                                       
Epoch 2024 Mar. 31.0 TT = JDT 2460400.5                 Alexandersen            
M   9.77547              (2000.0)            P               Q                  
n   0.00202480     Peri.  219.61208     -0.96376053     +0.06891432             
a  61.8796866      Node   321.85031     +0.12434318     -0.73865123             
e   0.2805748      Incl.   24.65813     -0.23601783     -0.67055588             
P 487              H    6.85          G   0.15           U   5                  
Residuals in seconds of arc
010123 807  0.1-  0.4-    010327 807  0.3+  0.1-    160328 W84  0.5+  0.3-
010123 807  0.0   0.3-    010327 807  0.2-  0.7+    160331 W84  0.4-  0.2+
010123 807  0.0   0.2-    010327 807  0.1-  0.1+    160331 W84  0.0   0.0
010123 807  0.1-  0.1+    010327 807  0.3+  0.1+    160331 W84  0.3+  0.2-
010327 807  0.0   0.2+    150413 W84  0.1+  0.1-    160401 W84  0.5-  0.2+
010327 807  0.1+  0.2+    150413 W84  0.1-  0.0     160401 W84  0.0   0.1+
010327 807  0.1-  0.4+    150413 W84  0.0   0.0     160401 W84  0.6+  0.2-
010327 807  0.3+  0.0     160328 W84  0.4-  0.3+
010327 807  0.1+  0.1+    160328 W84  0.0   0.0
Ephemeris:
2016 FG59                a,e,i = 61.88, 0.28, 25                 q = 44.5178
Date    TT    R. A. (2000) Decl.     Delta      r    Elong.  Phase     V
2024 05 04    12 25 18.4 -25 46 31  44.1670 45.0070   146.1     0.7    23.5
...
2024 05 19    12 24 31.3 -25 38 05  44.3021 45.0100   133.9     0.9    23.5
...
2024 05 27    12 24 12.7 -25 33 39  44.3934 45.0116   127.1     1.0    23.5
...
2024 06 02    12 24 02.1 -25 30 26  44.4693 45.0128   121.9     1.1    23.5
2024 06 03    12 24 00.6 -25 29 55  44.4825 45.0130   121.0     1.1    23.5
2024 06 04    12 23 59.2 -25 29 24  44.4959 45.0132   120.1     1.1    23.5
...
2024 06 10    12 23 52.6 -25 26 23  44.5790 45.0144   114.8     1.2    23.5
...
2024 06 18    12 23 48.7 -25 22 40  44.6965 45.0160   107.7     1.2    23.5
...
2024 07 03    12 23 56.5 -25 16 57  44.9300 45.0190    94.4     1.3    23.6
M. P. C. Staff               (C) Copyright 2024 MPC           M.P.E.C. 2024-L35
    
    
More information about the Iaude
mailing list